Regional Weather Roundup
Issued by NWS

Home | Current Version | Previous Version | Graphics & Text | Print | Product List | Glossary On
Versions: 1 2 3 4 5 6 7 8 9 10 11 12 13 14 15 16 17 18 19 20 21 22 23 24 25 26 27 28 29 30 31 32 33 34 35 36 37 38 39 40 41 42 43 44 45 46 47 48 49 50
000
ASUS43 KLMK 171702
RWRKY
KENTUCKY REGIONAL WEATHER ROUNDUP
NATIONAL WEATHER SERVICE LOUISVILLE KY
100 PM EDT THU AUG 17 2017

NOTE "FAIR" INDICATES FEW OR NO CLOUDS BELOW 12,000 FEET
WITH NO SIGNIFICANT WEATHER AND/OR OBSTRUCTIONS TO VISIBILITY.

KYZ001>023-026-027-061>063-070>075-171800-
WESTERN AND SOUTH CENTRAL KENTUCKY

CITY           SKY/WX    TMP DP  RH WIND       PRES   REMARKS
PADUCAH        PTSUNNY   86  72  62 VRB7G17   29.94F HX  92
HENDERSON      CLOUDY    86  75  69 W13       29.93F HX  95
OWENSBORO      PTSUNNY   89  75  63 SW16G25   29.92F HX  99
HOPKINSVILLE   PTSUNNY   82  74  78 SW12      29.98F
BOWLING GREEN  PTSUNNY   87  75  67 SW15G24   29.99F HX  96
GLASGOW        CLOUDY    87  73  61 SW13G18   29.99F HX  94
$$

KYZ024-025-028>034-038-045-046-053-171800-
NORTH CENTRAL KENTUCKY

CITY           SKY/WX    TMP DP  RH WIND       PRES   REMARKS
LOUISVILLE/SDF PTSUNNY   92  72  51 SW18G28   29.90F HX  99
LOUISVILLE/LOU MOSUNNY   91  74  57 SW20G26   29.91F HX 100
FORT KNOX      MOSUNNY   88  73  62 SW12      29.92F HX  96
$$

KYZ035>037-039>044-047>052-055>060-089>105-171800-
NORTHEAST KENTUCKY

CITY           SKY/WX    TMP DP  RH WIND       PRES   REMARKS
LEXINGTON      PTSUNNY   87  73  62 SW14G24   29.98F HX  94
COVINGTON      PTSUNNY   87  75  67 S20G28    29.90F HX  96
FRANKFORT      MOSUNNY   89  72  56 SW16G23   29.94F HX  96
$$

KYZ054-064>069-076>088-106>120-171800-
SOUTHEAST KENTUCKY

CITY           SKY/WX    TMP DP  RH WIND       PRES   REMARKS
JACKSON        PTSUNNY   84  75  74 VRB5      30.03F HX  92
LONDON         MOSUNNY   85  71  63 SW9       30.03F HX  90
SOMERSET       NOT AVBL
MIDDLESBORO    MOSUNNY   86  74  67 S9        30.05F HX  94
MONTICELLO     PTSUNNY   87  76  69 W17       30.04F HX  97
$$





USA.gov is the U.S. government's official web portal to all federal, state and local government web resources and services.